Weather History for Sisseton, SD

Change the Weather History Date:

Friday, February 8, 2013

  Actual Average Record
Temperature  
Mean Temperature 16 °F 16 °F  
Max Temperature 25 °F 26 °F 53 °F (2000)
Min Temperature 7 °F 6 °F -28 °F (1933)
Degree Days  
Heating Degree Days 49 49  
Month to date heating degree days 421 400  
Since 1 July heating degree days 5373 5346  
Cooling Degree Days 0 0  
Month to date cooling degree days 0 0  
Year to date cooling degree days 0 0  
Moisture  
Dew Point 16 °F    
Average Humidity 91    
Maximum Humidity 100    
Minimum Humidity 81    
Precipitation  
Precipitation 0.00 in 0.02 in 0.40 in (2010)
Month to date precipitation 0.15 0.09  
Year to date precipitation 0.95 0.52  
Snow  
Snow 0.00 in - - ()
Month to date snowfall 1.5  
Since 1 July snowfall 17.7  
Snow Depth -    
Sea Level Pressure  
Sea Level Pressure 30.25 in    
Wind  
Wind Speed 14 mph (SSE)    
Max Wind Speed 29 mph    
Max Gust Speed 36 mph    
T = Trace of Precipitation, MM = Missing Value Source: NWS Daily Summary

Daily Weather History Graph

Daily Weather History Graph

Search for Another Location

Airport:

Trip Planner

Search our weather history database for the weather conditions in past years. The results will help you decide how hot, cold, wet, or windy it might be!

Date:

Astronomy

Feb. 08, 2013 Rise Set
Actual Time 7:39 AM CST 5:45 PM CST
Civil Twilight 7:08 AM CST 6:16 PM CST
Nautical Twilight 6:33 AM CST 6:51 PM CST
Astronomical Twilight 5:59 AM CST 7:25 PM CST
Moon 6:11 AM CST (2/8) 4:18 PM CST (2/8)
Length of Visible Light 11h 07m
Length of Day
10h 05m
Waning Crescent, 3% of the Moon is Illuminated
Feb 8
Waning Crescent
Feb 10
New
Feb 17
First Quarter
Feb 25
Full
Mar 4
Last Quarter

Hourly Weather History & Observations

Time (CST) Temp. Windchill Dew Point Humidity Pressure Visibility Wind Dir Wind Speed Gust Speed Precip Events Conditions
12:56 AM 18.0 °F 12.7 °F 16.0 °F 92% 30.37 in - SSE 3.5 mph - N/A   Unknown
1:56 AM 18.0 °F - 16.0 °F 92% 30.37 in - Calm Calm - N/A   Unknown
2:56 AM 17.1 °F 11.7 °F 15.1 °F 92% 30.38 in - SE 3.5 mph - N/A   Unknown
3:56 AM 17.1 °F 10.0 °F 15.1 °F 92% 30.37 in - South 4.6 mph - N/A   Unknown
4:56 AM 12.0 °F 2.7 °F 10.9 °F 95% 30.38 in - SE 5.8 mph - N/A   Unknown
5:56 AM 14.0 °F 2.0 °F 10.9 °F 88% 30.36 in - SSE 9.2 mph - N/A   Unknown
6:56 AM 10.9 °F 0.2 °F 9.0 °F 92% 30.35 in - SSE 6.9 mph - N/A   Unknown
7:56 AM 7.0 °F -3.3 °F 6.1 °F 96% 30.36 in - SE 5.8 mph - N/A   Unknown
8:56 AM 10.0 °F -2.9 °F 8.1 °F 92% 30.36 in - SSE 9.2 mph - N/A   Unknown
9:56 AM 12.9 °F -0.2 °F 10.9 °F 92% 30.35 in - SSE 10.4 mph - N/A   Unknown
10:56 AM 19.0 °F 4.5 °F 15.1 °F 85% 30.33 in - South 16.1 mph - N/A   Unknown
11:56 AM 21.9 °F 6.2 °F 17.1 °F 82% 30.30 in - South 21.9 mph - N/A   Unknown
12:56 PM 23.0 °F 6.9 °F 18.0 °F 81% 30.25 in - South 24.2 mph - N/A   Unknown
1:56 PM 23.0 °F 7.2 °F 18.0 °F 81% 30.22 in - South 23.0 mph 27.6 mph N/A   Unknown
2:56 PM 24.1 °F 8.3 °F 19.0 °F 81% 30.18 in - South 24.2 mph 32.2 mph N/A   Unknown
3:56 PM 25.0 °F 8.6 °F 19.9 °F 81% 30.16 in - South 27.6 mph - N/A   Unknown
4:56 PM 25.0 °F 9.2 °F 21.0 °F 85% 30.14 in - South 25.3 mph 28.8 mph N/A   Unknown
5:56 PM 25.0 °F 9.9 °F 21.0 °F 85% 30.13 in - SSE 23.0 mph - N/A   Unknown
6:56 PM 24.1 °F 8.3 °F 21.0 °F 88% 30.12 in - SSE 24.2 mph - N/A   Unknown
7:56 PM 23.0 °F 10.6 °F 19.9 °F 88% 30.14 in - SSE 13.8 mph - N/A   Unknown
8:56 PM 23.0 °F 8.7 °F 21.0 °F 92% 30.12 in - SSE 18.4 mph - N/A   Unknown
9:56 PM 21.0 °F 9.9 °F 19.0 °F 92% 30.12 in - SSE 10.4 mph - N/A   Unknown
10:56 PM 21.0 °F 8.1 °F 18.0 °F 88% 30.09 in - South 13.8 mph - N/A   Unknown
11:56 PM 19.0 °F 7.5 °F 17.1 °F 92% 30.06 in - South 10.4 mph - N/A   Unknown